This is the latest recevied weather packets stored in our database for station/object IW1QLH-13. If no packets are shown the sender has not sent any weather packets the latest 10 day(s).
| Time | Temp. | Humidity | Pressure | Rain* | Wind** | Luminosity | Snow |
|---|---|---|---|---|---|---|---|
| 1788622310 | 27.78° C | 11% | - | - | - | 514 W/m² | - |
| 1788621699 | 28.89° C | 11% | - | - | - | 543 W/m² | - |
| 1788621084 | 28.89° C | 11% | - | - | - | 557 W/m² | - |
| 1788620473 | 28.89° C | 11% | - | - | - | 457 W/m² | - |
| 1788619861 | 28.89° C | 11% | - | - | - | 614 W/m² | - |
| 1788619249 | 28.89° C | 11% | - | - | - | 715 W/m² | - |
| 1788618637 | 30° C | 11% | - | - | - | 729 W/m² | - |
| 1788618026 | 27.78° C | 11% | - | - | - | 286 W/m² | - |
| 1788617414 | 28.89° C | 11% | - | - | - | 400 W/m² | - |
| 1788616802 | 28.89° C | 11% | - | - | - | 286 W/m² | - |
| 1788616191 | 30° C | 11% | - | - | - | 872 W/m² | - |
| 1788615580 | 28.89° C | 11% | - | - | - | 343 W/m² | - |
| 1788614968 | 30° C | 11% | - | - | - | 858 W/m² | - |
| 1788614356 | 30° C | 11% | - | - | - | 386 W/m² | - |
| 1788613745 | 30° C | 11% | - | - | - | 829 W/m² | - |
| 1788613134 | 30° C | 11% | - | - | - | 986 W/m² | - |
| 1788612522 | 30° C | 11% | - | - | - | 986 W/m² | - |
| 1788611908 | 30.56° C | 11% | - | - | - | 958 W/m² | - |
| 1788611296 | 30° C | 11% | - | - | - | 943 W/m² | - |
| 1788610683 | 31.67° C | 11% | - | - | - | 1001 W/m² | - |
| 1788610072 | 30° C | 11% | - | - | - | 1001 W/m² | - |
| 1788609460 | 30° C | 11% | - | - | - | 943 W/m² | - |
| 1788608849 | 30.56° C | 11% | - | - | - | 643 W/m² | - |
| 1788608237 | 30° C | 11% | - | - | - | 1086 W/m² | - |
| 1788607660 | 30° C | 11% | - | - | - | 715 W/m² | - |
* Rain since midnight (hover to see other rain measurements)
** Current wind speed in m/s (hover to see current wind gust speed)